Location: *
(28.2408°N, 53.4600°E)
Time: 02:01:39
(UTC+00:00)

Cosmos 2237 Rocket - Pass Details

Date: 22 September 2019
Orbit: 833 x 852 km, 71.0° (Epoch: 20 October)

Event Time Altitude Azimuth Distance (km) Brightness Sun altitude
Rises 17:07:48 0° 324° (NW) 3,417 6.1 -36.2°
Reaches altitude 10° 17:10:39 10° 311° (NW) 2,478 5.3 -36.7°
Maximum altitude 17:15:11 25° 258° (WSW) 1,655 4.0 -37.6°
Enters shadow 17:15:20 25° 256° (WSW) 1,656 4.0 -37.7°
